Weather History for KTUL - July, 2014

Change the Weather History Date:

Thursday, July 10, 2014

  Actual Average Record
Temperature  
Mean Temperature 72 °F 83 °F  
Max Temperature 78 °F 93 °F 107 °F (2011)
Min Temperature 65 °F 73 °F 59 °F (1961)
Cooling Degree Days 7 18  
Month to date cooling degree days 142 170  
Year to date cooling degree days 816 783  
Since 1 June cooling degree days 545 549  
Growing Degree Days 22 (Base 50)    
Moisture  
Dew Point 67 °F    
Average Humidity 66    
Maximum Humidity 100    
Minimum Humidity 31    
Precipitation  
Precipitation 1.98 in 0.12 in 2.20 in (1906)
Month to date precipitation 1.98 1.21  
Year to date precipitation 15.10 22.43  
Sea Level Pressure  
Sea Level Pressure 30.02 in    
Wind  
Wind Speed 9 mph (East)    
Max Wind Speed 26 mph    
Max Gust Speed 35 mph    
Visibility 7 miles    
Events Rain , Thunderstorm    
T = Trace of Precipitation, MM = Missing Value Source: NWS Daily Summary

Daily Weather History Graph

Daily Weather History Graph

Search for Another Location

Airport or City:

Trip Planner

Search our weather history database for the weather conditions in past years. The results will help you decide how hot, cold, wet, or windy it might be!

Date:

Astronomy

Jul. 10, 2014 Rise Set
Actual Time 6:14 AM CDT 8:42 PM CDT
Civil Twilight 5:44 AM CDT 9:12 PM CDT
Nautical Twilight 5:07 AM CDT 9:49 PM CDT
Astronomical Twilight 4:27 AM CDT 10:30 PM CDT
Moon 6:58 PM CDT (7/10) 4:25 AM CDT (7/10)
Length of Visible Light 15h 27m
Length of Day
14h 28m
Waxing Gibbous, 95% of the Moon is Illuminated
Jul 10
Waxing Gibbous
Jul 12
Full
Jul 18
Last Quarter
Jul 26
New
Aug 3
First Quarter

Hourly Weather History & Observations

Time (CDT) Temp. Dew Point Humidity Pressure Visibility Wind Dir Wind Speed Gust Speed Precip Events Conditions
12:53 AM 73.9 °F 66.9 °F 79% 29.99 in 10.0 mi SE 4.6 mph - N/A   Partly Cloudy
1:53 AM 73.0 °F 66.9 °F 81% 29.97 in 10.0 mi ESE 4.6 mph - N/A   Scattered Clouds
2:53 AM 71.6 °F 66.2 °F 83% 29.99 in 10.0 mi ESE 4.6 mph - N/A   Overcast
3:53 AM 72.0 °F 68.0 °F 87% 29.95 in 10.0 mi ESE 5.8 mph - N/A   Overcast
4:46 AM 72.0 °F 68.0 °F 87% 29.97 in 10.0 mi ESE 8.1 mph - N/A Thunderstorm Overcast
4:53 AM 71.6 °F 68.0 °F 88% 29.97 in 10.0 mi SE 8.1 mph - N/A Thunderstorm Thunderstorm
5:53 AM 72.0 °F 70.0 °F 93% 29.97 in 10.0 mi NE 4.6 mph - 0.06 in Rain , Thunderstorm Light Thunderstorms and Rain
6:53 AM 72.0 °F 70.0 °F 93% 29.99 in 10.0 mi NNE 9.2 mph - 0.01 in Thunderstorm Thunderstorm
7:45 AM 71.1 °F 69.1 °F 93% 30.04 in 7.0 mi North 10.4 mph - 0.00 in Rain , Thunderstorm Light Thunderstorms and Rain
7:53 AM 71.6 °F 69.8 °F 94% 30.04 in 5.0 mi NE 12.7 mph - N/A Rain , Thunderstorm Light Thunderstorms and Rain
8:10 AM 70.0 °F 69.1 °F 97% 30.08 in 5.0 mi NNW 15.0 mph - 0.01 in Rain , Thunderstorm Light Thunderstorms and Rain
8:18 AM 69.1 °F 68.0 °F 96% 30.09 in 5.0 mi NW 13.8 mph - 0.01 in Rain , Thunderstorm Light Thunderstorms and Rain
8:24 AM 69.1 °F 68.0 °F 96% 30.09 in 1.8 mi NNW 16.1 mph 23.0 mph 0.04 in Rain , Thunderstorm Heavy Thunderstorms and Rain
8:34 AM 68.0 °F 66.9 °F 96% 30.10 in 2.0 mi NW 12.7 mph 20.7 mph 0.17 in Rain , Thunderstorm Heavy Thunderstorms and Rain
8:42 AM 68.0 °F 66.9 °F 96% 30.11 in 1.2 mi NW 21.9 mph 29.9 mph 0.20 in Rain , Thunderstorm Thunderstorms and Rain
8:53 AM 66.9 °F 66.0 °F 97% 30.07 in 1.2 mi North 21.9 mph 35.7 mph 0.43 in Rain , Thunderstorm Heavy Thunderstorms and Rain
9:05 AM 66.9 °F 64.9 °F 93% 30.16 in 1.2 mi NW 21.9 mph 26.5 mph 0.04 in Rain , Thunderstorm Thunderstorms and Rain
9:11 AM 66.0 °F 64.9 °F 96% 30.19 in 1.2 mi WNW 21.9 mph 29.9 mph 0.08 in Rain , Thunderstorm Heavy Thunderstorms and Rain
9:29 AM 66.0 °F 64.0 °F 93% 30.14 in 1.2 mi NNE 10.4 mph - 0.47 in Rain , Thunderstorm Heavy Thunderstorms and Rain
9:44 AM 66.0 °F 64.9 °F 96% 30.10 in 2.0 mi ENE 10.4 mph - 0.51 in Rain , Thunderstorm Light Thunderstorms and Rain
9:53 AM 66.0 °F 64.9 °F 96% 30.04 in 5.0 mi ENE 13.8 mph - 0.52 in Rain , Thunderstorm Thunderstorms and Rain
10:14 AM 66.9 °F 64.9 °F 93% 30.01 in 10.0 mi ENE 16.1 mph 23.0 mph 0.02 in Rain Light Rain
10:53 AM 68.0 °F 64.9 °F 90% 30.02 in 10.0 mi ESE 5.8 mph - 0.02 in   Overcast
11:00 AM 68.0 °F 64.9 °F 90% 30.05 in 10.0 mi Calm Calm - N/A Thunderstorm Thunderstorm
11:26 AM 66.9 °F 66.0 °F 97% 30.07 in 5.0 mi NE 6.9 mph - 0.05 in Rain , Thunderstorm Light Thunderstorms and Rain
11:33 AM 66.9 °F 66.0 °F 97% 30.04 in 2.0 mi ESE 9.2 mph - 0.10 in Rain , Thunderstorm Heavy Thunderstorms and Rain
11:53 AM 66.9 °F 66.0 °F 97% 30.01 in 5.0 mi ESE 10.4 mph 21.9 mph 0.26 in Rain , Thunderstorm Light Thunderstorms and Rain
12:32 PM 71.1 °F 68.0 °F 90% 29.98 in 10.0 mi SSE 12.7 mph - 0.00 in   Overcast
12:42 PM 72.0 °F 66.9 °F 84% 30.00 in 10.0 mi ESE 5.8 mph - 0.00 in Thunderstorm Thunderstorm
12:44 PM 73.0 °F 66.9 °F 81% 30.01 in 10.0 mi ENE 5.8 mph - 0.00 in Thunderstorm Thunderstorm
12:53 PM 71.1 °F 66.9 °F 87% 29.99 in 10.0 mi NE 8.1 mph - 0.00 in Thunderstorm Thunderstorm
1:34 PM 69.1 °F 66.9 °F 93% 30.04 in 1.8 mi East 6.9 mph - 0.10 in Rain , Thunderstorm Heavy Thunderstorms and Rain
1:53 PM 69.1 °F 66.9 °F 93% 29.98 in 1.2 mi SSE 16.1 mph - 0.45 in Rain , Thunderstorm Heavy Thunderstorms and Rain
2:06 PM 69.8 °F 66.2 °F 88% 30.00 in 1.8 mi South 6.9 mph - N/A Rain , Thunderstorm Light Thunderstorms and Rain
2:53 PM 70.0 °F 66.9 °F 90% 29.99 in 5.0 mi South 12.7 mph - 0.20 in Rain , Thunderstorm Heavy Thunderstorms and Rain
3:53 PM 70.0 °F 69.1 °F 97% 30.01 in 7.0 mi East 6.9 mph - 0.01 in Thunderstorm Thunderstorm
4:47 PM 73.4 °F 69.8 °F 88% 30.00 in 10.0 mi SSE 12.7 mph - 0.01 in   Overcast
4:53 PM 73.0 °F 70.0 °F 90% 29.97 in 10.0 mi SSE 12.7 mph - 0.01 in Rain Light Rain
5:53 PM 75.9 °F 70.0 °F 82% 29.95 in 10.0 mi SE 12.7 mph - 0.00 in   Mostly Cloudy
6:53 PM 77.0 °F 69.1 °F 76% 29.97 in 10.0 mi ESE 9.2 mph - N/A   Scattered Clouds
7:53 PM 75.0 °F 68.0 °F 79% 29.98 in 10.0 mi SE 10.4 mph - N/A   Mostly Cloudy
8:53 PM 72.0 °F 68.0 °F 87% 29.98 in 10.0 mi East 6.9 mph - N/A   Scattered Clouds
9:53 PM 70.0 °F 62.1 °F 76% 29.99 in 10.0 mi East 8.1 mph - N/A   Mostly Cloudy
10:53 PM 70.0 °F 37.9 °F 31% 30.01 in 10.0 mi ESE 10.4 mph - N/A   Mostly Cloudy
11:53 PM 70.0 °F 68.0 °F 93% 30.01 in 10.0 mi SE 5.8 mph - 0.00 in   Mostly Cloudy